sat.trackr.live / text

‹ back to catalog

STARLINK-34875

NORAD 65689 · 2025-212P

PAYLOAD ACTIVE UNKNOWN

§ Identity

Operator
Country
US
Launch date
2025-09-21
Launch site
AFETR
Launch vehicle
Mass (kg)
RCS (m²)

Purposes: comms

External: N2YO · Heavens-Above · Gunter

§ Orbital elements

Epoch: 2026-09-20T23:12:24.626016Z

Period
93.85 min
Inclination
53.1633°
Eccentricity
0.0000736
Mean motion
15.34407978 rev/d
Perigee alt
462.2 km
Apogee alt
463.2 km
Semi-major
6,840.8 km
B*
6.0685e-4
RAAN
155.6404°
Arg perigee
26.8773°
Mean anomaly
333.2268°
Rev number
5,718

§ Raw data

STARLINK-348751 65689U 25212P   26263.96695169  .00020188  00000+0  60685-3 0  99922 65689  53.1633 155.6404 0000736  26.8773 333.2268 15.34407978 57187

JSON: /api/v1/satellites/65689 · /tle

For live sub-satellite position, see the globe view (requires WebGL).

§ Visibility from observer

Set your observer location to see the next 7 days of passes ≥ 10°. The values pass through the URL so the page stays shareable.

No JS? Fill the form by hand. The geolocation button needs JavaScript.